Regional Weather Roundup
Issued by NWS

Home | Current Version | Previous Version | Graphics & Text | Print | Product List | Glossary On
Versions: 1 2 3 4 5 6 7 8 9 10 11 12 13 14 15 16 17 18 19 20 21 22 23 24 25 26 27 28 29 30 31 32 33 34 35 36 37 38 39 40 41 42 43 44 45 46 47 48 49 50
622
ASUS45 KBOU 031007
RWRCO

WEATHER ROUNDUP FOR COLORADO
NATIONAL WEATHER SERVICE DENVER/BOULDER CO
300 AM MST SAT DEC 03 2016

NOTE: "FAIR" INDICATES FEW OR NO CLOUDS BELOW 12000 FEET WITH NO
SIGNIFICANT WEATHER AND/OR OBSTRUCTIONS TO VISIBILITY.

COZ001>005-013-030-031-031100-
...NORTHWEST COLORADO...

CITY           SKY/WX    TMP DP  RH WIND       PRES   REMARKS
CRAIG          CLOUDY    17  13  84 CALM      30.19
HAYDEN         CLOUDY    16   9  73 S5        30.16F WCI   9
MEEKER         FAIR       5   2  87 NE5       30.20R WCI  -4
MOUNT WERNER   NOT AVBL
STEAMBOAT SPGS CLOUDY    16  13  90 CALM      30.15F
WALDEN           N/A      3   0  85 S3        30.07F
$$

COZ006>008-011-031100-
...WEST CENTRAL VALLEYS...

CITY           SKY/WX    TMP DP  RH WIND       PRES   REMARKS
GRAND JUNCTION FAIR      20  17  88 CALM      30.21
MONTROSE       CLOUDY    21  18  88 S7        30.22R WCI  12
EAGLE          FLURRIES  21  19  92 E3        30.17R
RIFLE          CLOUDY    23  16  74 CALM      30.22
DELTA          NOT AVBL
NUCLA          FAIR      23  21  93 SE3       30.20R
$$

COZ017>023-064>068-031100-
...SOUTHWEST COLORADO...

CITY           SKY/WX    TMP DP  RH WIND       PRES   REMARKS
DURANGO        FAIR      22  19  89 N5        30.08  WCI  16
CORTEZ         FAIR      17  15  92 E7        30.12  WCI   8
PAGOSA SPRINGS FAIR      20  20  98 CALM      30.10S
TELLURIDE      FAIR      16  15  93 S3        30.10S
WOLF CREEK PAS HVY SNOW  12  12 100 S9G18     30.09F VSB 1/4 WCI   0
$$

COZ009-010-012-014-032>034-037-058>063-031100-
...CENTRAL COLORADO...

CITY           SKY/WX    TMP DP  RH WIND       PRES   REMARKS
ASPEN          CLOUDY    15  13  91 N5        30.11R WCI   8
BUENA VISTA    MOCLDY     9   4  81 W3        30.08F
COPPER MTN     NOT AVBL
BERTHOUD PASS  FAIR       5  -8  56 W30G41    29.90S WCI -19
COTTONWOOD PAS SNOW      14  10  85 E5        30.02F VSB 1/2 WCI   6
GUNNISON       FLURRIES  18  14  84 NE5       30.14R WCI  11
KREMMLING      LGT SNOW  18  12  79 CALM      30.13F
LEADVILLE      FAIR      -2  -6  83 CALM      30.01F
MONARCH PASS   CLOUDY    10   5  79 W31G37    30.10F WCI -12
SALIDA         CLOUDY    18  15  88 CALM      30.17F
SUNLIGHT       LGT SNOW N/A N/A N/A SW8       30.09S
WILKERSON PASS LGT SNOW  12   9  85 SW16G23   29.99S VSB 3/4 WCI  -4
$$

COZ069>075-031100-
...SAN LUIS VALLEY/SANGRE DE CRISTO MOUNTAINS...

CITY           SKY/WX    TMP DP  RH WIND       PRES   REMARKS
ALAMOSA        CLOUDY    19  16  88 CALM      30.11F
LA VETA PASS   CLOUDY    18  14  86 NE17G26   30.03S FOG     WCI   2
SAGUACHE       CLOUDY    23  18  80 NW3       30.10F
$$

COZ035-036-038>040-031100-
...NORTHERN COLORADO FRONT RANGE...

CITY           SKY/WX    TMP DP  RH WIND       PRES   REMARKS
DENVER INTL AP FAIR      19  13  77 SW7       30.05  WCI  10
DMNS CITY PARK   N/A     19  17  91 E8        30.06S WCI   9
AURORA         PTCLDY    19  14  82 SW6       30.05F WCI  11
FRONT RANGE AP FAIR      23  18  80 SW6       30.06F WCI  16
ERIE MUNI ARPT FAIR      15  13  92 CALM      30.07F
BOULDER MUN AP FAIR      21  19  93 SW3       30.06F
CENTENNIAL     FAIR      18  12  77 SW6       30.04  WCI  10
BROOMFIELD     FAIR      27  21  80 CALM      30.05F
FORT COLLINS   FAIR      19  18  93 NE3       30.08F
LONGMONT       FAIR      20  15  79 W3        30.09F
$$

COZ041-046-047-076>085-087-088-031100-
...PIKES PEAK/PALMER DIVIDE AND SOUTHERN FOOTHILLS...

CITY           SKY/WX    TMP DP  RH WIND       PRES   REMARKS
COLO. SPRINGS  FAIR      24  17  74 S14       30.09F WCI  12
A. F. ACADEMY  FAIR      16  12  84 CALM      30.06F
SCHRIEVER AFB  NOT AVBL
ELLICOTT       CLOUDY   N/A N/A N/A S9        30.09F
FALCON         CLOUDY    23  18  80 S13       30.08F WCI  11
FORT CARSON    FAIR      25  19  76 S13       30.08F WCI  14
LIMON          FAIR      16  14  92 SE9       30.10  WCI   4
MONUMENT HILL  FAIR      19  16  86 S10       30.04F WCI   8
TRINIDAD       FAIR      20  17  88 N5        30.12F WCI  13
$$

COZ042>045-048>051-090-091-031100-
...NORTHEAST COLORADO...

CITY           SKY/WX    TMP DP  RH WIND       PRES   REMARKS
GREELEY ARPT   FAIR      12  10  92 N5        30.09  WCI   4
AKRON          FAIR      26  19  74 S13       30.10  WCI  15
BURLINGTON     FAIR      25  18  74 S7        30.16  WCI  17
WRAY           NOT AVBL
STERLING       FAIR      23  21  93 CALM      30.11F
HOLYOKE        MOCLDY    32  23  69 S10       30.15F WCI  24
FORT MORGAN    NOT AVBL
$$

COZ086-089-092>099-031100-
...SOUTHEAST COLORADO...

CITY           SKY/WX    TMP DP  RH WIND       PRES   REMARKS
PUEBLO         CLOUDY    29  22  75 E3        30.15
LA JUNTA       FAIR      21  16  81 NW7       30.17  WCI  12
LAMAR          FAIR      26  16  65 SE12      30.18  WCI  16
SPRINGFIELD      N/A     29  26  89 SE3       30.17F
$$




USA.gov is the U.S. government's official web portal to all federal, state and local government web resources and services.